Salina, KS

5:38 AM CDT on May 28, 2018 (GMT -0500)
Salina Municipal

Weather History for KSLN - October, 2013

Change the Weather History Date:

Thursday, October 3, 2013

  Actual Average Record
Temperature  
Mean Temperature 78 °F 62 °F  
Max Temperature 90 °F 74 °F 100 °F (1954)
Min Temperature 65 °F 51 °F 32 °F (1987)
Degree Days  
Heating Degree Days 0 5  
Month to date heating degree days 0 15  
Since 1 July heating degree days 12 67  
Cooling Degree Days 13 2  
Month to date cooling degree days 29 8  
Year to date cooling degree days 1724 1620  
Growing Degree Days 28 (Base 50)    
Moisture  
Dew Point 65 °F    
Average Humidity 63    
Maximum Humidity 84    
Minimum Humidity 41    
Precipitation  
Precipitation T in 0.09 in 2.90 in (1942)
Month to date precipitation T 0.27  
Year to date precipitation 27.87 27.31  
Sea Level Pressure  
Sea Level Pressure 29.70 in    
Wind  
Wind Speed 15 mph (SSE)    
Max Wind Speed 28 mph    
Max Gust Speed 38 mph    
Visibility 10 miles    
Events Rain    
T = Trace of Precipitation, MM = Missing Value Source: NWS Daily Summary

Daily Weather History Graph

Daily Weather History Graph

Search for Another Location

Airport or City:

Astronomy

Oct. 03, 2013 Rise Set
Actual Time 7:28 AM CDT 7:09 PM CDT
Civil Twilight 7:02 AM CDT 7:36 PM CDT
Nautical Twilight 6:31 AM CDT 8:07 PM CDT
Astronomical Twilight 6:00 AM CDT 8:38 PM CDT
Moon 6:03 AM CDT (10/3) 6:18 PM CDT (10/3)
Length of Visible Light 12h 34m
Length of Day
11h 41m
Waning Crescent, 2% of the Moon is Illuminated
Oct 3
Waning Crescent
Oct 4
New
Oct 11
First Quarter
Oct 18
Full
Oct 26
Last Quarter

Hourly Weather History & Observations

Time (CDT) Temp. Heat Index Dew Point Humidity Pressure Visibility Wind Dir Wind Speed Gust Speed Precip Events Conditions
12:53 AM 73.9 °F - 64.9 °F 73% 29.77 in 10.0 mi SSE 11.5 mph - N/A   Mostly Cloudy
1:53 AM 73.0 °F - 64.9 °F 76% 29.75 in 10.0 mi SSE 12.7 mph - N/A   Clear
2:53 AM 73.9 °F - 64.9 °F 73% 29.75 in 10.0 mi SSE 15.0 mph 19.6 mph N/A   Scattered Clouds
3:53 AM 73.0 °F - 66.0 °F 79% 29.73 in 10.0 mi SSE 13.8 mph - N/A   Clear
4:53 AM 73.0 °F - 66.0 °F 79% 29.73 in 10.0 mi SSE 11.5 mph - N/A   Mostly Cloudy
5:53 AM 73.0 °F - 66.0 °F 79% 29.71 in 10.0 mi South 13.8 mph - N/A   Overcast
6:41 AM 71.6 °F - 66.2 °F 83% 29.77 in 10.0 mi South 13.8 mph 23.0 mph N/A   Scattered Clouds
6:53 AM 72.0 °F - 66.0 °F 81% 29.73 in 10.0 mi SSE 13.8 mph - N/A   Mostly Cloudy
7:53 AM 72.0 °F - 66.0 °F 81% 29.76 in 10.0 mi Variable 4.6 mph - N/A   Overcast
8:53 AM 68.0 °F - 61.0 °F 78% 29.78 in 10.0 mi ENE 11.5 mph - N/A   Overcast
9:53 AM 66.0 °F - 61.0 °F 84% 29.79 in 10.0 mi ENE 11.5 mph - 0.00 in Rain Light Rain
10:53 AM 70.0 °F - 63.0 °F 78% 29.77 in 10.0 mi East 15.0 mph - N/A   Scattered Clouds
11:53 AM 75.9 °F - 66.0 °F 71% 29.73 in 10.0 mi East 13.8 mph - N/A   Partly Cloudy
12:53 PM 82.0 °F 83.8 °F 64.9 °F 56% 29.70 in 10.0 mi South 13.8 mph 24.2 mph N/A   Mostly Cloudy
1:53 PM 86.0 °F 87.6 °F 64.9 °F 49% 29.65 in 10.0 mi South 15.0 mph 28.8 mph N/A   Clear
2:53 PM 88.0 °F 89.6 °F 64.9 °F 46% 29.63 in 10.0 mi South 20.7 mph 29.9 mph N/A   Clear
3:53 PM 90.0 °F 90.6 °F 63.0 °F 40% 29.61 in 10.0 mi South 20.7 mph 32.2 mph N/A   Clear
4:53 PM 89.1 °F 90.3 °F 64.0 °F 43% 29.60 in 10.0 mi South 20.7 mph 29.9 mph N/A   Clear
5:53 PM 88.0 °F 89.6 °F 64.9 °F 46% 29.60 in 10.0 mi South 19.6 mph 28.8 mph N/A   Clear
6:53 PM 86.0 °F 87.6 °F 64.9 °F 49% 29.62 in 10.0 mi South 15.0 mph 27.6 mph N/A   Clear
7:53 PM 82.9 °F 84.6 °F 64.9 °F 54% 29.64 in 10.0 mi SSE 15.0 mph - N/A   Clear
8:53 PM 82.0 °F 83.8 °F 64.9 °F 56% 29.65 in 10.0 mi SSE 13.8 mph - N/A   Scattered Clouds
9:53 PM 80.1 °F 81.9 °F 64.9 °F 60% 29.66 in 10.0 mi SSE 13.8 mph - N/A   Clear
11:53 PM 79.0 °F - 64.9 °F 62% 29.66 in 10.0 mi South 20.7 mph 31.1 mph N/A   Clear